Weather History for Jefferson, NC

Change the Weather History Date:

Sunday, February 17, 2013

  Actual Average Record
Temperature  
Mean Temperature 20 °F -  
Max Temperature 27 °F 46 °F 65 °F (1976)
Min Temperature 13 °F 25 °F 5 °F (1973)
Degree Days  
Heating Degree Days 45    
Moisture  
Dew Point 3 °F    
Average Humidity 48    
Maximum Humidity 74    
Minimum Humidity 31    
Precipitation  
Precipitation 0.00 in - - ()
Sea Level Pressure  
Sea Level Pressure 29.94 in    
Wind  
Wind Speed 17 mph (WNW)    
Max Wind Speed 31 mph    
Max Gust Speed 52 mph    
Visibility 8 miles    
Events Snow    
Averages and records for this station are not official NWS values.
T = Trace of Precipitation, MM = Missing Value Source: NWS Daily Summary

Daily Weather History Graph

Daily Weather History Graph

Search for Another Location

Airport:

Trip Planner

Search our weather history database for the weather conditions in past years. The results will help you decide how hot, cold, wet, or windy it might be!

Date:

Astronomy

Feb. 17, 2013 Rise Set
Actual Time 7:10 AM EST 6:08 PM EST
Civil Twilight 6:44 AM EST 6:35 PM EST
Nautical Twilight 6:14 AM EST 7:05 PM EST
Astronomical Twilight 5:44 AM EST 7:35 PM EST
Moon 11:16 AM EST (2/17) 12:50 AM EST (2/17)
Length of Visible Light 11h 50m
Length of Day
10h 57m
Waxing Crescent, 49% of the Moon is Illuminated
Feb 17
Waxing Crescent
Feb 17
First Quarter
Feb 25
Full
Mar 4
Last Quarter
Mar 11
New

Hourly Weather History & Observations

Time (EST) Temp. Windchill Dew Point Humidity Pressure Visibility Wind Dir Wind Speed Gust Speed Precip Events Conditions
12:15 AM 18.1 °F 2.9 °F 9.1 °F 68% 29.83 in 3.0 mi NW 17.3 mph 21.9 mph N/A Snow Light Snow
12:35 AM 18.0 °F 6.1 °F 7.5 °F 64% 29.83 in 10.0 mi NW 10.4 mph 23.0 mph N/A   Overcast
12:55 AM 17.4 °F 9.1 °F 10.0 °F 73% 29.83 in 2.5 mi NW 5.8 mph 20.7 mph N/A Snow Light Snow
1:15 AM 17.2 °F 0.8 °F 9.7 °F 72% 29.83 in 1.0 mi WNW 19.6 mph 31.1 mph N/A Snow Light Snow
1:35 AM 17.6 °F 2.2 °F 5.9 °F 60% 29.83 in 10.0 mi NW 17.3 mph 33.4 mph N/A   Overcast
2:15 AM 17.4 °F 1.5 °F 5.4 °F 59% 29.83 in 7.0 mi WNW 18.4 mph 26.5 mph N/A   Overcast
2:35 AM 16.7 °F 3.2 °F 7.0 °F 66% 29.83 in 1.8 mi NW 12.7 mph 27.6 mph N/A Snow Light Snow
2:55 AM 15.8 °F 2.1 °F 7.3 °F 69% 29.83 in 4.0 mi NW 12.7 mph 25.3 mph N/A Snow Light Snow
3:15 AM 15.8 °F 0.3 °F 4.6 °F 61% 29.82 in 7.0 mi WNW 16.1 mph 34.5 mph N/A   Mostly Cloudy
3:35 AM 15.8 °F -1.9 °F 3.2 °F 58% 29.82 in 10.0 mi WNW 21.9 mph 31.1 mph N/A   Scattered Clouds
3:55 AM 15.8 °F -2.3 °F 3.2 °F 58% 29.82 in 10.0 mi NW 23.0 mph 29.9 mph N/A   Mostly Cloudy
4:15 AM 15.4 °F -1.6 °F 2.3 °F 56% 29.82 in 7.0 mi WNW 19.6 mph 36.8 mph N/A   Overcast
4:35 AM 15.4 °F -1.1 °F 2.3 °F 56% 29.83 in 10.0 mi WNW 18.4 mph 33.4 mph N/A   Overcast
4:55 AM 14.4 °F -0.4 °F 7.5 °F 74% 29.84 in 1.0 mi NW 13.8 mph 27.6 mph N/A Snow Light Snow
5:15 AM 13.5 °F -4.2 °F 6.4 °F 74% 29.85 in 1.5 mi NNW 19.6 mph 35.7 mph N/A Snow Light Snow
5:35 AM 13.5 °F -3.7 °F 4.1 °F 66% 29.85 in 2.5 mi NW 18.4 mph 35.7 mph N/A Snow Light Snow
5:55 AM 13.6 °F -4.4 °F -0.4 °F 54% 29.86 in 4.0 mi NW 20.7 mph 38.0 mph N/A   Haze
6:15 AM 13.8 °F -7.4 °F -0.6 °F 53% 29.85 in 10.0 mi WNW 31.1 mph 44.9 mph N/A   Overcast
6:35 AM 13.8 °F -3.2 °F 0.9 °F 56% 29.87 in 7.0 mi NW 18.4 mph 39.1 mph N/A   Overcast
6:55 AM 13.6 °F -1.9 °F 3.2 °F 63% 29.88 in 4.0 mi NW 15.0 mph 27.6 mph N/A Snow Light Snow
7:15 AM 13.8 °F -3.7 °F 3.9 °F 65% 29.88 in 4.0 mi WNW 19.6 mph 34.5 mph N/A Snow Light Snow
7:35 AM 13.8 °F -2.2 °F 4.3 °F 66% 29.88 in 1.8 mi WNW 16.1 mph 35.7 mph N/A Snow Light Snow
7:55 AM 14.4 °F -0.4 °F 4.1 °F 64% 29.88 in 2.5 mi NW 13.8 mph 29.9 mph N/A Snow Light Snow
8:15 AM 14.9 °F -0.3 °F 3.9 °F 62% 29.88 in 4.0 mi WNW 15.0 mph 46.0 mph N/A Snow Light Snow
8:35 AM 15.4 °F -2.0 °F 3.6 °F 59% 29.88 in 3.0 mi NW 20.7 mph 36.8 mph N/A Snow Light Snow
8:55 AM 16.0 °F -1.7 °F 2.5 °F 55% 29.88 in 7.0 mi NW 21.9 mph 51.8 mph N/A   Overcast
9:15 AM 16.7 °F -2.2 °F 0.9 °F 50% 29.89 in 7.0 mi NW 26.5 mph 40.3 mph N/A   Overcast
9:35 AM 17.2 °F 0.8 °F 1.9 °F 51% 29.90 in 10.0 mi WNW 19.6 mph 33.4 mph N/A   Overcast
9:55 AM 17.8 °F 1.9 °F 3.0 °F 53% 29.91 in 10.0 mi WNW 18.4 mph 35.7 mph N/A   Overcast
10:15 AM 18.0 °F 6.9 °F 5.0 °F 57% 29.93 in 7.0 mi WNW 9.2 mph 26.5 mph N/A   Overcast
10:35 AM 18.7 °F 4.0 °F 4.6 °F 54% 29.93 in 10.0 mi WNW 16.1 mph 24.2 mph N/A   Overcast
10:55 AM 19.2 °F 5.8 °F 5.0 °F 54% 29.94 in 7.0 mi WNW 13.8 mph 32.2 mph N/A   Overcast
11:15 AM 19.9 °F 6.2 °F 5.2 °F 53% 29.94 in 10.0 mi WNW 15.0 mph 26.5 mph N/A   Overcast
11:35 AM 20.7 °F 3.5 °F 1.6 °F 44% 29.93 in 10.0 mi WNW 25.3 mph 48.3 mph N/A   Scattered Clouds
11:55 AM 21.4 °F 3.2 °F -0.0 °F 39% 29.93 in 10.0 mi WNW 29.9 mph 47.2 mph N/A   Scattered Clouds
12:15 PM 22.1 °F 8.9 °F -0.6 °F 37% 29.94 in 10.0 mi WNW 15.0 mph 32.2 mph N/A   Clear
12:35 PM 22.8 °F 7.7 °F 0.1 °F 37% 29.94 in 10.0 mi West 20.7 mph 47.2 mph N/A   Scattered Clouds
12:55 PM 23.7 °F 9.3 °F 1.2 °F 38% 29.94 in 10.0 mi West 19.6 mph 32.2 mph N/A   Scattered Clouds
1:15 PM 24.4 °F 9.5 °F 1.9 °F 38% 29.94 in 10.0 mi West 21.9 mph 39.1 mph N/A   Scattered Clouds
2:15 PM 25.5 °F 11.3 °F 0.7 °F 34% 29.94 in 10.0 mi West 20.7 mph 38.0 mph N/A   Scattered Clouds
2:35 PM 26.1 °F 11.3 °F 1.0 °F 34% 29.94 in 10.0 mi West 23.0 mph 32.2 mph N/A   Scattered Clouds
2:55 PM 26.1 °F 11.6 °F 0.9 °F 34% 29.95 in 10.0 mi West 21.9 mph 32.2 mph N/A   Clear
3:15 PM 26.8 °F 18.5 °F 1.0 °F 33% 29.96 in 10.0 mi WNW 8.1 mph 29.9 mph N/A   Scattered Clouds
3:35 PM 27.0 °F 13.9 °F 1.6 °F 34% 29.97 in 10.0 mi WNW 18.4 mph 31.1 mph N/A   Clear
4:15 PM 26.8 °F 14.5 °F 1.6 °F 34% 29.98 in 10.0 mi WNW 16.1 mph 34.5 mph N/A   Scattered Clouds
4:35 PM 27.1 °F 14.5 °F 1.6 °F 33% 29.99 in 10.0 mi West 17.3 mph 28.8 mph N/A   Scattered Clouds
4:55 PM 26.8 °F 15.4 °F 1.2 °F 33% 30.00 in 10.0 mi West 13.8 mph 25.3 mph N/A   Clear
5:15 PM 26.6 °F 16.8 °F 1.0 °F 33% 30.01 in 10.0 mi West 10.4 mph 25.3 mph N/A   Clear
5:35 PM 26.1 °F 13.6 °F 1.4 °F 35% 30.01 in 10.0 mi WNW 16.1 mph 26.5 mph N/A   Clear
5:55 PM 25.7 °F 12.3 °F 0.7 °F 34% 30.01 in 10.0 mi WNW 18.4 mph 27.6 mph N/A   Clear
6:15 PM 25.5 °F 13.3 °F 1.8 °F 36% 30.02 in 10.0 mi West 15.0 mph 19.6 mph N/A   Clear
6:35 PM 25.0 °F 14.8 °F 1.6 °F 36% 30.03 in 10.0 mi WNW 10.4 mph 18.4 mph N/A   Clear
6:55 PM 24.8 °F 12.4 °F 2.1 °F 38% 30.03 in 10.0 mi WNW 15.0 mph 28.8 mph N/A   Clear
7:15 PM 24.6 °F 13.2 °F 1.8 °F 37% 30.04 in 10.0 mi West 12.7 mph 21.9 mph N/A   Clear
7:35 PM 24.6 °F 10.5 °F 1.9 °F 38% 30.04 in 10.0 mi WNW 19.6 mph 27.6 mph N/A   Clear
8:15 PM 24.6 °F 10.5 °F 2.1 °F 38% 30.04 in 10.0 mi WNW 19.6 mph 28.8 mph N/A   Clear
8:35 PM 24.6 °F 11.3 °F 1.9 °F 38% 30.05 in 10.0 mi NW 17.3 mph 27.6 mph N/A   Clear
8:55 PM 24.6 °F 13.8 °F 2.1 °F 38% 30.05 in 10.0 mi NW 11.5 mph 21.9 mph N/A   Clear
9:15 PM 24.6 °F 12.7 °F 2.1 °F 38% 30.06 in 10.0 mi WNW 13.8 mph 27.6 mph N/A   Clear
9:35 PM 24.6 °F 11.3 °F 2.3 °F 38% 30.06 in 10.0 mi WNW 17.3 mph 27.6 mph N/A   Clear
9:55 PM 24.6 °F 9.7 °F 2.5 °F 39% 30.06 in 10.0 mi WNW 21.9 mph 31.1 mph N/A   Clear
10:15 PM 24.6 °F 12.7 °F 1.9 °F 38% 30.08 in 10.0 mi West 13.8 mph 26.5 mph N/A   Clear
10:35 PM 25.0 °F 11.7 °F -0.0 °F 34% 30.08 in 10.0 mi WNW 17.3 mph 29.9 mph N/A   Clear
11:15 PM 24.8 °F 14.6 °F -0.2 °F 34% 30.09 in 10.0 mi WNW 10.4 mph - N/A   Clear
11:35 PM 25.0 °F 14.8 °F -0.8 °F 33% 30.09 in 10.0 mi WNW 10.4 mph 24.2 mph N/A   Clear
11:55 PM 25.3 °F 12.2 °F -1.7 °F 31% 30.09 in 10.0 mi WNW 17.3 mph 25.3 mph N/A   Clear